Temp
8 9 9 8 8 9 8 7 7 8 8 8 8 8 7 7 8 8 8 8 8 4 5 10 11 10 9 8 9 10 10 9 8 9 8 9 9 11 11 10 8 8 7 8 9 9 8 11 11 12 12 12 13 13
8 9 8 8 8 8 8 8 8 8 7 8 8 8 8 7 7 7 7 6 6 5 5 8 9 9 10 10 8 8 10 10 8 8 8 8 10 9 10 10 10 10 10 9 9 10 11 10 11 11 11 12 12 12
8 8 8 8 8 8 8 8 8 8 8 8 8 8 8 7 7 6 6 6 5 3 4 5 7 8 8 8 10 8 7 9 8 7 8 8 9 8 9 9 11 12 10 10 11 12 12 13 11 11 10 10 11 10
7 7 7 7 7 7 7 7 7 7 8 7 7 8 7 7 6 6 5 5 5 4 3 5 7 7 7 7 7 7 7 8 7 5 7 7 7 8 8 10 10 11 10 10 11 13 13 13 13 12 12 10 10 9
6 6 7 7 7 7 7 7 7 7 7 7 7 7 7 7 7 6 5 4 4 5 4 4 5 5 5 5 5 5 6 5 5 5 3 5 5 8 7 7 10 10 12 11 11 14 13 14 12 13 12 12 10 8
6 6 6 6 6 6 6 6 6 6 6 7 7 6 6 7 7 6 4 5 4 4 2 5 4 4 4 4 4 4 4 4 4 4 4 4 6 7 5 5 8 10 11 12 13 13 11 10 10 11 10 9 9 8
5 5 6 6 6 6 6 6 6 6 6 7 6 6 6 6 6 6 6 6 6 4 4 5 4 2 4 4 3 2 3 3 3 4 4 4 5 5 5 6 11 10 10 9 9 9 9 9 11 9 8 9 9 8
5 5 5 5 5 5 5 6 6 6 6 6 6 6 7 6 5 5 5 4 5 5 3 3 4 3 3 2 2 3 3 4 3 4 4 4 4 5 6 8 8 7 7 7 9 8 9 8 8 7 7 6 6 5
4 4 4 5 5 5 5 5 5 5 5 5 6 6 5 5 4 3 3 3 3 4 3 3 4 7 2 2 1 2 3 3 3 4 4 4 4 5 7 6 6 6 6 8 8 7 6 6 6 5 5 5 4 3
4 4 4 4 4 4 4 4 5 5 5 5 5 5 4 3 3 3 2 2 2 1 1 2 1 3 1 1 3 2 3 4 4 4 3 4 5 6 7 8 8 8 7 7 4 5 4 4 5 5 4 4 3 3
4 4 4 4 4 4 4 4 4 5 4 4 4 3 2 2 2 2 3 3 3 3 2 2 2 4 3 4 5 4 3 3 4 3 4 5 5 4 6 5 5 5 4 4 4 4 4 5 5 4 4 3 2 2
4 3 3 3 3 4 4 4 4 4 4 4 4 2 2 2 2 4 4 3 3 3 2 3 3 2 3 3 4 3 3 3 4 3 3 4 3 3 4 5 5 3 2 3 3 3 3 4 4 3 2 0 1 3
3 3 3 3 3 3 3 4 4 4 3 4 3 2 2 2 3 4 2 3 3 2 1 1 1 2 2 2 3 3 4 4 0 3 4 3 3 5 5 4 4 2 3 3 3 4 5 4 5 3 2 3 3 2
3 3 3 3 3 3 3 3 3 3 4 1 3 3 3 2 4 3 2 2 2 1 1 1 1 2 2 2 2 3 4 2 3 2 2 1 4 6 5 4 4 5 4 3 1 0 2 2 2 3 3 3 3 1
3 3 3 3 3 3 3 3 3 3 3 3 2 3 3 2 -2 -2 -2 -1 -1 1 2 1 1 1 1 1 3 2 3 1 0 2 1 0 5 4 4 6 7 8 5 4 2 1 1 2 1 2 3 4 3 2
3 3 2 3 3 3 3 3 2 2 2 1 1 2 3 2 2 -0 -5 -3 -2 -0 -1 -0 3 3 3 3 3 2 0 0 2 -0 -0 1 4 3 5 5 5 6 5 3 4 3 3 2 1 2 4 3 3 2
2 2 2 3 3 3 3 2 2 0 1 2 2 2 -2 -3 -2 -1 0 1 1 2 3 2 3 3 1 3 3 -0 -0 3 2 2 2 4 3 7 7 4 4 4 5 5 3 4 3 5 4 0 -1 2 2 2
1 2 2 2 2 2 2 1 1 0 0 1 -1 2 -0 0 -0 0 0 -0 0 0 1 2 -1 2 3 0 5 2 1 -0 1 2 6 7 7 7 7 6 6 6 5 5 4 4 3 1 -2 0 2 2 1 1
1 2 2 2 2 1 -0 0 -0 -0 -1 -4 -1 -2 -1 0 -0 2 1 1 2 0 1 2 3 3 3 5 5 5 5 5 5 6 6 7 7 7 7 7 6 3 3 3 4 4 5 4 3 4 2 1 -1 1
1 1 1 2 2 -0 0 0 -1 -0 -4 -1 -3 2 0 1 2 0 1 2 1 -2 1 2 3 4 5 6 5 4 2 3 5 6 6 6 7 7 6 6 5 6 5 4 2 2 2 1 2 2 1 1 -0 1
1 1 1 1 1 1 -0 0 0 -1 -5 -3 -1 1 -2 -6 -2 1 2 0 -2 1 2 3 4 5 5 6 6 6 5 5 5 6 6 6 7 7 7 7 6 6 5 5 5 4 5 2 3 4 2 1 1 1
1 1 1 1 0 -0 -0 -0 0 -1 -2 -4 -5 -4 -7 -3 1 1 -4 -2 -1 2 3 3 3 4 4 4 5 5 5 5 5 5 5 6 5 5 5 5 5 4 4 4 4 3 3 4 3 2 3 2 2 1
1 1 1 1 0 1 0 -0 0 -0 -1 -3 -8 -3 -5 -6 -4 -4 -3 -1 3 4 4 3 4 4 4 4 4 4 4 4 4 4 4 5 5 5 5 5 5 3 3 4 4 3 3 3 3 3 3 2 1 0
1 0 0 0 0 1 0 0 0 0 -4 -3 -4 -5 -8 -5 -7 -4 -2 3 3 4 3 3 3 3 3 3 2 3 4 4 4 4 4 4 3 4 5 4 4 4 4 3 3 3 3 2 2 2 2 1 -0 -1
-1 -0 1 1 0 0 0 -0 -0 -3 -5 -5 -4 -8 -6 -7 -5 -8 -1 2 2 2 2 3 3 3 3 3 4 4 5 5 4 3 3 4 4 4 4 4 3 3 4 3 2 2 2 1 1 0 -0 -0 -0 -0
1 0 0 0 0 0 -1 -3 -3 -4 -6 -7 -7 -7 -9 -5 -5 -2 -2 1 2 2 3 3 3 4 4 4 4 3 2 2 1 2 2 4 4 3 3 3 3 3 5 4 3 2 2 2 1 1 -0 -0 0 0
0 0 -1 -0 -1 -1 -2 -2 -3 -5 -6 -5 -7 -7 -4 -1 -2 -2 0 -0 2 2 4 4 4 3 3 4 4 3 3 2 2 4 5 4 5 4 3 3 3 4 5 4 4 3 2 2 2 0 -0 -0 -1 -1
-3 -3 -1 -1 -3 -4 -3 -6 -7 -5 -4 -4 -4 -5 -3 -2 1 3 0 4 5 6 4 4 4 3 3 3 4 4 4 4 4 3 1 2 3 4 4 3 3 4 3 2 2 2 1 1 1 0 -1 -1 -2 -2
-0 -4 -4 -6 -7 -7 -3 -3 -3 -3 -2 -3 1 2 2 3 4 3 4 4 4 3 0 2 3 3 3 2 2 1 2 1 1 0 0 2 2 3 4 4 4 4 4 2 1 1 0 0 -0 -0 -1 -2 -2 -3
-3 -2 -3 -6 -4 -3 -2 -4 -5 -0 1 2 2 2 2 2 3 4 3 3 1 -1 2 2 3 2 2 2 2 2 3 2 1 0 1 2 2 4 4 4 4 4 3 1 -0 -1 -1 -2 -3 -3 -4 -4 -4 -5
-4 -3 -5 -4 -2 1 1 1 -5 -1 -4 -2 -1 -0 1 2 3 3 3 2 2 2 1 1 2 3 2 2 2 2 2 3 3 3 3 2 2 2 2 3 3 2 2 0 -2 -2 -3 -4 -4 -5 -6 -7 -7 -7
-3 -2 -1 -3 0 0 -7 -6 -4 -1 0 -1 -1 -0 0 -6 -1 1 2 2 2 1 2 2 1 2 3 3 3 3 3 3 3 3 3 2 2 3 3 2 1 1 0 -1 -3 -3 -4 -5 -6 -7 -7 -8 -8 -8
-6 -6 -2 -1 -6 -6 -8 -7 -9 -9 -11 -2 -0 0 0 0 -0 1 3 4 3 2 2 3 3 3 3 3 3 3 2 2 3 3 4 3 3 3 2 2 1 -0 -1 -3 -4 -4 -5 -5 -6 -7 -8 -8 -8 -8
Height
853 853 855 856 856 854 853 853 852 852 850 849 848 847 846 844 842 841 839 837 836 841 831 825 823 824 826 829 830 826 828 827 833 835 837 832 832 817 814 813 823 826 837 834 830 826 816 765 768 768 751 744 743 744
848 850 850 851 852 852 852 850 850 850 849 848 847 846 846 843 842 841 839 838 837 836 828 824 823 823 821 822 826 825 822 821 824 831 832 828 823 822 818 814 804 809 797 805 801 779 757 755 747 745 745 744 743 743
844 846 846 847 848 848 848 849 848 847 847 847 846 845 844 842 841 842 841 838 836 835 827 823 819 820 819 821 822 824 820 817 818 818 824 826 825 822 816 806 792 784 784 786 778 752 750 747 745 742 742 742 740 739
840 841 842 843 845 845 844 845 845 844 844 844 844 843 842 841 839 840 840 839 837 836 840 824 817 817 818 818 820 821 820 818 819 821 822 824 822 810 806 793 791 782 778 772 760 743 743 738 736 735 734 734 734 733
836 837 838 839 841 842 841 841 841 841 842 842 841 841 839 838 838 835 836 837 837 838 836 827 816 816 815 815 817 819 821 821 823 825 831 826 819 811 804 799 767 764 753 763 748 735 736 730 730 729 730 728 729 730
833 832 834 835 836 839 839 837 839 837 836 838 837 837 837 835 836 835 833 835 835 836 837 832 820 816 816 816 814 816 818 821 822 824 825 816 807 809 813 802 752 743 740 738 734 730 730 727 726 724 725 726 725 725
831 829 830 831 832 834 835 834 837 834 833 835 835 833 834 832 833 834 831 832 833 835 837 832 824 820 818 818 819 819 818 818 820 821 819 817 812 810 806 789 737 740 742 742 739 737 731 725 720 717 718 718 720 721
828 829 829 827 828 831 830 831 834 832 831 832 832 831 828 827 830 831 829 830 831 833 836 836 825 824 819 820 822 819 820 820 819 816 811 810 810 809 789 743 746 745 743 738 732 729 724 722 719 716 716 717 718 720
824 828 829 826 826 828 829 829 831 831 828 830 830 827 826 826 827 828 830 830 831 835 832 832 826 810 819 820 822 823 822 820 815 812 812 811 804 796 749 754 749 744 743 732 726 724 720 718 716 716 715 716 716 714
821 823 824 824 824 827 829 828 828 828 827 828 828 827 826 826 826 826 828 833 832 830 830 825 819 818 819 822 820 824 819 819 812 804 807 803 791 751 752 747 743 736 729 728 729 719 720 719 717 714 713 711 711 709
820 819 817 820 822 825 826 826 827 827 826 826 826 826 827 826 825 825 825 829 829 826 821 816 816 811 812 815 814 814 817 815 812 806 805 796 786 757 743 744 739 733 728 726 722 717 712 710 711 712 711 711 710 707
814 815 816 815 819 820 820 823 826 826 827 824 825 826 825 825 825 825 818 820 822 814 811 810 811 812 810 811 813 815 813 811 804 806 806 797 771 751 749 742 734 730 725 721 715 711 708 707 706 707 707 708 705 703
810 811 813 812 814 816 817 819 823 823 825 827 826 824 824 824 822 816 823 813 809 804 804 806 810 808 811 813 812 812 807 801 811 803 793 779 753 745 744 739 731 726 723 721 714 712 711 709 708 708 705 704 703 702
803 806 810 808 810 812 814 815 818 822 825 826 826 822 818 817 808 803 802 801 795 798 801 803 808 808 808 813 811 808 800 805 800 803 786 759 743 739 736 735 731 724 720 718 713 710 708 705 702 701 701 699 698 697
798 801 803 805 805 808 810 811 816 820 820 822 823 811 800 796 802 800 801 801 799 797 799 805 806 808 812 812 805 806 800 802 798 781 760 749 737 738 736 729 723 720 718 714 712 711 703 699 697 695 692 694 692 692
792 796 795 798 800 803 806 811 814 816 814 814 810 800 790 792 794 797 805 803 796 798 802 805 802 803 799 798 795 792 798 789 766 762 747 743 736 732 728 724 718 715 714 708 704 701 698 694 691 688 683 683 681 683
786 786 789 792 795 798 801 807 809 810 805 797 789 786 793 797 795 793 789 792 793 797 799 801 798 795 795 785 781 782 777 755 751 744 737 734 733 723 719 718 713 710 706 701 696 691 689 685 683 682 681 671 671 673
779 779 781 784 788 792 794 796 797 799 795 788 792 781 783 781 782 785 786 786 790 792 794 794 794 788 776 782 754 759 756 750 744 739 729 726 722 718 714 710 707 702 698 692 688 683 681 679 679 675 670 666 665 664
769 772 774 775 781 784 782 782 784 783 780 781 776 776 777 774 768 770 772 774 774 777 782 782 775 763 758 750 746 742 740 738 734 726 723 720 716 708 702 700 695 691 688 683 679 675 671 667 665 663 660 660 659 655
761 764 766 768 774 773 771 768 767 768 777 766 766 766 767 764 759 764 766 766 771 779 772 763 756 748 745 739 740 737 735 731 729 720 711 709 706 698 694 690 686 682 677 672 668 664 662 658 655 652 650 649 649 645
753 752 757 761 765 761 757 753 753 754 758 759 753 756 760 761 760 756 754 756 767 757 751 746 740 735 731 728 726 724 722 721 715 711 707 701 692 687 684 679 677 672 667 662 657 654 652 649 644 642 640 639 638 636
740 746 748 750 752 749 743 741 743 743 751 750 753 751 764 757 744 743 748 752 748 737 733 727 723 722 719 716 712 709 706 704 701 699 697 692 686 680 670 671 668 662 657 653 651 647 642 639 637 635 634 631 630 628
735 738 738 740 739 734 729 732 732 733 738 742 750 746 749 747 738 735 744 731 721 718 716 716 711 707 705 699 696 694 692 692 690 688 682 678 678 669 664 661 659 654 648 643 642 638 633 630 629 626 624 622 621 619
726 725 723 723 721 718 723 719 721 723 733 733 740 742 745 735 730 735 728 709 706 706 706 701 697 694 692 690 686 681 677 680 679 672 668 669 662 655 655 648 646 643 639 637 634 629 625 623 621 619 617 615 614 613
717 712 707 702 705 709 710 714 715 726 730 731 730 739 728 726 731 742 711 697 698 696 692 686 686 686 683 676 673 669 669 670 665 661 655 656 652 646 642 638 634 629 629 628 620 618 616 614 612 612 611 610 608 606
693 690 690 687 691 698 704 714 714 716 720 729 726 718 722 719 726 709 700 686 684 681 677 674 671 669 666 664 662 661 659 656 655 652 644 642 640 638 635 631 624 615 615 613 612 610 607 606 605 605 603 602 600 599
681 680 682 679 685 689 694 692 693 703 713 714 715 715 709 700 699 687 673 670 669 664 663 660 659 658 656 652 647 646 643 643 644 638 632 631 629 626 625 621 615 605 604 604 603 602 601 601 598 597 596 596 596 595
675 677 674 675 682 685 688 698 703 701 696 690 691 700 693 687 665 658 657 653 656 653 652 650 649 647 645 642 640 638 634 632 628 624 623 620 616 613 609 605 601 596 596 595 594 594 593 592 591 591 592 592 591 592
664 668 674 686 691 689 680 679 678 672 663 668 662 659 654 646 642 644 646 645 645 645 645 641 636 637 634 630 627 623 623 622 622 618 614 609 604 599 596 595 593 590 588 587 587 585 586 586 587 587 588 589 588 589
656 655 662 672 670 668 657 655 656 644 644 645 644 642 640 635 635 636 636 637 637 635 631 629 626 626 619 617 613 611 609 608 608 607 603 599 592 589 588 587 585 585 583 582 581 581 583 584 584 585 586 586 587 590
646 650 658 654 650 637 635 633 640 641 643 640 637 636 629 626 624 625 627 626 624 623 622 617 611 606 607 604 602 600 595 593 592 590 588 585 582 582 580 579 579 579 578 577 578 580 582 582 583 585 586 588 591 592
638 639 639 649 636 630 640 640 637 631 629 632 630 627 623 631 619 614 613 614 612 609 602 601 598 590 587 589 588 586 584 582 581 578 577 575 573 572 572 572 572 572 572 573 575 577 579 580 583 585 586 589 591 592
637 636 628 627 642 639 639 640 646 645 644 623 614 610 608 608 603 595 592 590 588 585 583 580 580 581 578 576 575 573 572 571 570 567 565 563 563 564 564 565 565 566 567 569 572 574 576 578 581 584 586 589 591 593
Wind_Speed
12 11 10 9 9 7 6 6 8 9 10 12 13 12 11 11 12 9 3 8 4 0 5 3 2 3 1 1 3 3 3 1 2 2 3 3 3 4 2 4 6 8 6 5 4 5 10 5 3 7 6 2 5 3
11 11 11 10 10 9 9 8 8 9 11 10 11 12 11 10 9 8 2 6 6 4 5 5 11 14 8 4 4 2 2 2 4 2 2 1 2 2 3 4 1 2 7 5 11 9 7 8 8 9 3 4 4 4
9 8 8 8 9 9 9 10 9 8 9 9 11 10 11 10 9 8 6 5 2 2 4 3 2 3 6 15 11 3 2 2 3 3 3 2 4 3 3 5 4 4 7 5 2 10 21 15 12 9 7 8 7 7
9 8 8 7 7 8 9 9 9 8 8 10 11 11 10 11 8 8 7 6 2 2 0 5 3 4 4 5 10 11 1 1 4 2 2 3 3 4 4 6 5 6 2 4 13 19 14 16 13 14 13 9 8 9
9 8 9 9 10 10 10 9 9 8 8 10 10 11 10 10 9 8 11 8 8 1 2 4 11 3 4 5 4 5 6 1 1 0 1 3 3 1 4 3 13 10 10 8 11 14 12 16 6 3 5 5 6 7
8 7 7 8 8 9 9 8 10 9 10 12 11 10 10 7 8 4 2 4 4 6 2 4 2 0 2 1 3 3 4 2 3 3 3 4 3 3 3 4 6 7 9 17 16 14 12 10 8 6 8 9 8 8
9 8 8 8 7 7 8 7 9 9 9 10 9 9 9 7 12 4 2 4 5 6 1 4 4 2 2 2 3 2 1 1 3 2 3 3 2 3 3 5 4 2 5 7 9 8 12 10 9 9 9 8 8 6
8 8 7 6 6 7 6 7 10 9 8 8 9 10 9 4 8 8 7 9 6 3 3 2 4 3 3 0 1 0 1 0 2 2 1 2 1 2 6 18 11 8 9 12 15 11 16 10 6 6 5 4 5 7
9 10 8 6 5 6 6 6 8 7 6 7 7 3 1 3 4 0 1 4 12 3 2 3 2 3 1 0 1 1 1 3 2 2 2 2 2 6 10 6 9 11 8 18 15 10 9 7 9 8 6 5 7 7
12 12 11 8 7 7 7 7 6 6 6 4 2 2 1 1 1 1 1 0 1 1 1 3 0 2 4 1 1 1 2 2 3 4 2 3 3 27 19 20 20 21 19 14 12 15 7 7 7 6 8 7 7 6
14 14 11 10 10 9 8 6 4 1 6 3 2 1 1 2 1 1 2 2 2 3 4 2 3 3 3 2 3 3 2 2 3 2 3 2 4 5 6 7 10 11 10 10 10 12 10 9 5 6 7 7 7 8
15 14 14 13 12 10 8 7 7 6 3 2 2 2 1 1 1 2 3 3 5 4 4 3 4 4 1 2 2 2 3 1 5 2 2 3 5 8 7 10 13 10 8 9 8 9 8 7 6 5 6 7 10 15
17 16 15 14 13 11 10 10 9 7 4 2 2 1 0 1 4 5 6 4 3 3 3 2 1 3 1 1 1 2 3 4 2 2 4 7 5 7 7 6 9 7 7 8 8 10 7 7 12 9 7 14 14 13
19 17 18 15 15 13 12 11 9 9 4 2 3 4 5 5 5 6 4 3 3 3 4 3 2 2 2 2 2 3 3 2 3 4 8 4 6 4 5 6 5 11 9 9 7 5 7 6 7 15 18 19 14 13
22 21 20 19 16 15 14 13 13 14 6 4 4 6 9 4 2 3 2 1 2 3 3 2 2 2 2 2 3 2 3 5 6 6 4 3 2 4 5 7 8 13 9 7 4 8 8 11 9 14 21 22 21 19
23 22 24 22 20 19 18 15 12 10 4 3 6 5 5 2 4 2 1 2 2 4 2 2 2 2 5 4 6 8 4 8 5 4 3 4 7 7 12 10 7 9 9 8 12 14 17 12 10 14 22 23 23 22
22 18 21 23 24 23 21 13 9 5 4 5 6 6 3 1 3 3 4 3 8 3 2 2 5 11 0 4 5 5 6 5 5 6 4 7 8 19 19 11 10 13 13 16 16 18 19 23 20 13 11 22 21 24
24 20 22 22 21 20 23 18 7 5 9 6 3 7 4 4 4 4 4 3 4 4 3 6 2 7 9 8 14 8 6 5 5 7 12 17 18 17 19 18 20 23 20 21 21 21 17 15 6 8 18 22 16 19
28 26 26 23 24 12 7 9 9 6 9 3 5 2 3 3 3 7 4 9 12 4 2 3 7 6 10 8 12 11 11 10 11 12 12 18 23 23 26 28 27 20 19 20 21 15 18 21 18 20 20 17 12 17
28 29 28 27 27 9 6 4 10 4 5 5 1 9 5 6 8 4 6 7 4 3 7 10 16 16 15 16 13 11 5 8 13 16 17 15 24 27 21 19 14 22 21 21 21 22 16 14 23 23 22 20 16 17
25 31 29 30 26 23 4 4 4 4 3 3 6 8 4 1 4 9 11 4 4 7 11 11 14 14 19 24 29 25 14 16 16 15 16 15 19 25 25 29 29 27 13 13 12 12 18 9 24 23 21 21 23 25
25 23 17 26 11 7 6 11 3 4 3 3 0 3 3 5 10 9 2 4 4 10 10 14 15 14 16 19 18 32 32 33 31 26 28 28 16 15 16 18 15 12 13 13 15 12 18 23 23 22 21 24 25 23
25 20 13 13 6 7 5 12 6 7 6 5 2 4 4 3 4 3 4 5 9 11 15 12 20 30 19 32 34 34 35 29 14 13 21 22 24 31 27 26 24 13 13 18 22 21 21 25 23 22 24 24 21 19
21 8 8 6 10 6 5 5 4 5 2 3 3 5 3 4 2 3 6 11 11 10 10 16 14 13 14 16 14 15 26 24 20 25 28 19 13 17 25 26 25 25 23 25 22 22 22 21 20 20 21 19 16 15
5 8 7 7 6 7 6 6 5 3 6 8 7 4 3 2 3 4 8 8 7 9 11 13 11 10 12 15 14 15 29 22 9 12 26 25 24 24 19 24 25 26 22 21 20 19 19 19 17 15 16 14 14 15
11 11 6 10 7 6 6 6 9 9 5 4 6 3 2 4 4 6 5 7 9 9 11 11 11 11 11 11 11 8 14 28 28 10 24 25 21 13 12 12 11 14 22 24 22 17 16 17 14 13 14 16 16 16
5 5 2 2 3 3 3 3 2 4 6 7 4 4 4 5 7 6 6 6 8 10 23 25 19 8 11 11 21 26 28 27 23 23 31 30 33 31 23 15 14 28 28 23 22 23 18 17 16 13 12 12 13 13
5 5 9 8 3 2 5 2 5 7 5 4 3 6 9 9 12 10 8 15 21 24 23 25 27 26 22 23 25 26 25 26 30 31 26 29 34 36 37 35 37 39 37 30 25 24 23 22 19 14 12 12 11 10
4 3 5 6 2 3 7 7 7 6 5 5 8 12 13 13 15 12 17 26 27 22 12 12 23 25 26 28 29 28 26 23 9 15 17 11 11 16 26 24 25 24 24 23 17 14 16 15 13 11 10 10 7 7
6 6 5 4 7 8 7 7 4 7 7 10 10 12 12 14 22 29 24 21 10 8 21 25 27 20 15 13 14 21 26 26 23 15 12 12 12 24 25 24 23 21 18 15 11 8 6 7 6 3 5 5 5 5
4 5 3 5 8 11 13 10 1 3 3 6 8 10 15 14 17 25 24 25 23 22 17 14 20 32 20 14 13 13 13 24 27 31 34 35 31 28 31 31 28 22 16 12 11 14 13 11 8 7 7 6 6 8
5 9 7 6 10 11 1 3 4 6 9 9 11 11 13 5 16 11 30 28 23 13 27 29 15 18 34 31 29 29 31 31 34 33 31 32 34 34 33 30 24 18 17 15 16 17 16 12 11 11 9 8 9 9
1 1 4 7 3 3 2 3 2 4 2 8 13 15 16 15 19 9 19 27 31 28 27 32 32 31 33 35 33 33 32 30 32 34 36 36 35 31 27 23 20 20 19 18 19 18 17 14 12 11 11 13 12 13
Wind_Direction
253 257 265 268 282 292 309 330 343 345 344 340 338 341 350 1 8 14 54 25 71 249 283 290 243 198 358 122 160 243 42 351 79 160 174 255 216 252 279 183 180 175 165 198 194 230 266 169 56 175 220 244 189 202
239 238 246 258 270 281 286 303 313 320 334 333 326 325 328 341 353 358 342 345 327 187 245 279 274 269 240 217 157 260 233 155 195 132 231 244 280 280 194 276 194 236 197 189 192 217 228 210 211 232 215 201 227 203
237 248 257 262 265 271 285 297 299 302 315 329 319 313 313 318 327 341 322 336 326 2 301 347 312 308 267 242 241 174 259 224 134 163 163 230 245 148 232 237 235 264 201 232 204 235 248 247 256 248 225 230 239 227
238 246 252 257 261 270 283 288 293 293 302 310 309 304 300 301 307 313 308 299 293 116 338 281 275 261 267 260 241 242 294 59 102 75 165 208 197 190 233 244 239 212 312 223 261 274 273 265 257 262 260 247 234 225
241 249 261 267 271 272 275 281 285 283 286 294 298 298 300 289 287 297 295 278 238 213 222 279 307 278 274 253 258 245 220 139 106 41 150 227 248 302 276 288 257 201 228 215 245 261 249 270 264 235 218 222 231 201
239 245 262 269 275 281 279 275 275 273 284 290 292 290 295 295 274 300 356 214 205 196 62 326 319 349 4 14 178 179 186 175 175 172 228 248 242 161 260 259 236 208 218 231 250 258 247 250 249 221 222 228 217 209
248 248 251 262 268 274 275 276 278 283 288 289 278 277 289 295 244 215 205 131 142 168 79 301 297 347 51 45 11 25 55 190 148 215 227 227 267 184 234 247 112 257 295 281 274 288 283 254 255 218 216 227 228 232
256 260 255 253 253 264 271 284 284 284 277 268 277 290 295 275 244 261 263 246 172 129 71 251 271 340 172 175 321 268 182 21 239 248 268 197 241 240 257 249 301 302 290 286 275 262 264 276 259 213 195 171 209 240
245 249 249 243 243 263 270 269 274 279 265 271 291 300 147 184 172 169 285 209 197 197 213 192 218 246 121 27 98 1 234 243 212 222 241 163 190 233 240 296 293 295 271 288 291 265 271 258 250 238 220 224 235 245
239 238 243 248 249 254 256 261 274 273 259 250 255 215 255 135 144 141 86 133 85 222 207 235 240 269 118 153 236 167 193 258 260 221 130 221 251 252 272 275 280 285 284 289 289 291 273 275 256 244 236 242 238 247
245 240 238 238 240 240 245 256 273 163 171 210 215 230 207 176 142 160 190 204 160 243 220 226 206 208 196 167 223 191 210 223 268 231 200 250 257 252 243 279 273 274 285 285 267 274 257 237 254 259 270 261 256 249
248 246 239 235 237 234 226 227 220 217 226 193 174 154 145 73 80 236 209 170 214 236 186 179 206 183 246 139 157 215 220 169 252 137 233 254 253 263 303 305 316 318 302 301 298 291 263 221 219 237 258 263 255 254
247 244 241 236 235 233 224 211 212 204 176 250 29 34 113 192 226 212 211 227 209 203 184 157 180 151 53 47 211 221 227 232 69 226 237 232 261 289 295 294 303 307 316 319 342 340 310 283 294 275 273 268 274 263
249 247 245 239 229 226 223 212 203 186 187 158 189 235 213 216 224 209 201 196 223 140 150 119 110 141 171 158 209 222 229 168 237 231 234 240 234 248 305 285 317 326 327 310 284 270 278 282 276 280 268 269 262 251
249 246 243 239 232 226 222 215 205 197 172 202 205 228 225 221 247 249 217 95 290 129 120 78 68 130 206 217 210 271 229 236 207 228 235 240 267 271 283 315 327 334 316 298 287 286 271 264 255 269 270 265 255 254
247 250 245 240 232 223 218 215 200 200 204 210 225 234 228 198 249 256 7 250 211 134 69 79 151 214 227 214 196 220 193 221 241 231 237 289 305 286 306 301 294 302 289 277 275 265 270 259 250 259 272 264 252 246
246 240 240 237 233 226 214 193 174 189 234 222 228 219 190 103 199 214 168 213 149 105 198 190 216 220 244 220 222 202 216 244 251 273 280 294 280 307 311 287 283 288 282 282 271 281 275 288 290 263 266 265 249 248
237 237 234 230 230 227 218 197 186 195 229 234 247 239 183 180 191 214 212 163 141 186 165 226 177 217 235 223 252 257 269 259 254 265 293 294 292 293 289 290 287 283 276 274 273 272 276 281 249 263 269 271 246 240
238 241 234 226 216 204 190 197 175 207 213 195 235 215 198 232 214 223 201 199 206 170 187 224 249 239 242 251 260 265 267 272 277 280 281 283 284 286 287 288 285 274 273 272 273 272 272 262 262 270 268 259 243 249
241 241 241 234 218 203 212 211 187 179 189 211 213 240 221 226 248 224 238 230 197 198 243 239 250 257 262 267 267 262 253 265 281 288 285 287 285 284 285 283 282 285 281 276 269 266 270 271 271 265 255 244 242 251
246 245 243 234 227 223 226 197 201 186 184 181 217 210 232 63 211 238 246 206 185 224 249 250 255 259 259 262 266 270 271 269 266 270 278 284 282 286 287 289 291 287 281 279 279 283 277 256 270 270 257 252 248 248
239 234 230 226 225 222 225 186 214 182 156 209 101 153 176 215 230 235 181 192 225 237 238 248 252 256 260 261 260 260 260 263 267 271 275 273 277 283 284 286 285 282 278 278 282 275 273 275 272 265 257 259 263 255
234 232 222 203 219 217 220 165 199 184 170 200 82 163 245 232 213 106 214 225 243 246 248 251 256 256 254 258 261 262 262 263 267 268 270 273 275 272 277 278 275 272 278 279 273 268 270 271 269 266 265 261 252 249
229 209 200 210 195 208 172 208 186 168 150 140 159 217 256 202 155 157 234 249 250 257 255 253 252 261 268 261 256 262 266 266 264 265 265 268 267 270 271 272 271 265 260 270 275 271 273 273 271 269 264 256 251 247
205 214 200 197 173 180 172 163 183 177 187 204 193 266 259 99 177 215 235 258 251 250 253 258 261 255 258 269 272 271 275 267 263 285 280 270 266 271 274 271 269 265 262 254 261 263 267 269 275 274 273 264 263 264
212 198 218 176 165 167 177 177 194 197 178 191 216 225 125 162 184 239 229 249 248 250 256 259 258 259 259 256 268 270 270 279 278 269 266 265 262 254 264 269 275 279 270 253 248 258 263 262 256 260 265 266 265 269
208 209 200 177 167 153 197 202 168 142 167 194 218 163 165 220 229 242 255 238 241 242 249 255 259 251 263 263 245 246 257 255 248 260 270 276 275 264 249 257 266 269 281 276 263 254 253 265 264 259 257 269 275 269
203 178 187 185 195 189 169 126 159 187 210 217 131 173 185 203 246 248 240 256 263 267 258 267 271 269 263 260 264 267 265 272 277 277 275 270 268 273 271 265 270 278 277 274 269 267 265 261 261 250 244 254 262 278
207 193 129 193 180 180 197 192 206 213 202 168 223 239 243 242 251 260 267 268 272 273 267 275 278 278 275 273 268 258 258 261 256 270 273 277 289 284 286 283 281 287 290 284 273 257 265 265 261 253 259 254 260 253
227 178 170 177 174 209 224 190 217 231 224 231 244 259 263 261 261 264 267 268 257 257 265 270 273 268 271 276 277 274 270 262 241 234 260 268 263 271 281 284 290 297 291 272 262 227 209 188 171 174 188 185 180 169
148 155 187 207 226 242 241 248 350 237 208 231 234 243 255 266 268 264 255 255 259 265 263 264 270 272 270 265 262 268 275 272 263 259 253 251 259 266 274 282 290 286 264 249 224 201 188 177 177 168 167 166 185 178
178 193 210 223 243 243 113 186 215 233 253 253 258 260 265 261 265 269 260 256 254 250 253 257 257 262 266 265 267 263 259 261 270 269 269 265 265 274 280 284 284 262 239 228 213 200 195 182 179 188 178 176 183 174
270 206 214 227 261 261 274 76 356 276 251 245 250 246 249 252 258 260 255 245 236 241 244 250 257 261 263 266 266 266 267 265 271 278 280 275 276 280 279 278 266 241 223 212 201 195 190 180 181 182 177 179 175 166